Weather in Okunev Nos

Russia / Komi Republic     66°15′29″N   52°34′05″E
temp.,
°C
wind,
m/s
gust,
m/s
humid.,
%
clouds,
%
prec.,
mm/h
press.,
hPa
HPBL,
m
23 april, fri
fri2300:00+3ssw61288100 0.1 1013521
03:00+3s61286100 0.1 1012452
06:00+3ssw71399100 0.6 1012797
09:00+3sw5989100 1.4 1014707
12:00+6sw71068100 0.1 10151431
15:00+5sw687364 0.1 1018997
18:00+5sw487646 0.0 1019246
21:00+2sw338860 0.0 102140
24 april, sat
sat2400:00+1ssw229052 0.0 102216
03:000sse228992 0.0 102314
06:00+4ese358077 0.0 1022141
09:00+8se477996 0.0 1022353
12:00+12s576673 0.0 1022687
15:00+13sse575999 0.0 10211193
18:00+11sse596660 0.0 1020241
21:00+7se498151 0.0 1021154
25 april, sun
sun2500:00+5se4786100 0.0 102098
03:00+6ese51078100 0.0 1019197
06:00+6se51178100 0.0 1018406
09:00+9se71261100 0.0 10161421
12:00+10se71058100 0.0 10151512
15:00+10se71058100 0.1 10131439
18:00+9se596799 0.1 10121009
21:00+7ese4977100 0.1 1011296
26 april, mon
mon2600:00+6ese498297 0.1 1009311
03:00+5e3587100 0.3 1007118
06:00+6ese378193 0.1 1005499
09:00+5ese4589100 0.1 1004609
12:00+5se3489100 0.1 1004724
15:00+5se2389100 0.2 1003521
18:00+5se1291100 0.1 100344
21:00+4sse1191100 0.1 100212
27 april, tue
tue2700:00+4sse1192100 0.0 100110
03:00+4se0092100 0.1 100110
06:00+4ne1190100 0.1 100018
09:00+4ene1288100 0.1 1000485
12:00+5ene0189100 0.1 999631
15:00+5nne1191100 0.3 999640
18:00+4n1195100 0.5 999214
21:00+4nnw2297100 1.1 998231